Regional Weather Roundup
Issued by NWS

Home | Current Version | Previous Version | Graphics & Text | Print | Product List | Glossary On
Versions: 1 2 3 4 5 6 7 8 9 10 11 12 13 14 15 16 17 18 19 20 21 22 23 24 25 26 27 28 29 30 31 32 33 34 35 36 37 38 39 40 41 42 43 44 45 46 47 48 49 50
000
ASUS45 KBOU 211807
RWRCO

WEATHER ROUNDUP FOR COLORADO
NATIONAL WEATHER SERVICE DENVER/BOULDER CO
1200 PM MDT THU MAY 21 2015

NOTE: "FAIR" INDICATES FEW OR NO CLOUDS BELOW 12000 FEET WITH NO
SIGNIFICANT WEATHER AND/OR OBSTRUCTIONS TO VISIBILITY.

COZ001>005-013-030-031-211900-
...NORTHWEST COLORADO...

CITY           SKY/WX    TMP DP  RH WIND       PRES   REMARKS
CRAIG          MOSUNNY   64  40  41 MISG      30.08F
HAYDEN         MOSUNNY   61  34  36 NE5       30.09F
MEEKER         PTSUNNY   60  40  47 S6        30.09S
MOUNT WERNER   NOT AVBL
STEAMBOAT SPGS MOSUNNY   60  27  27 CALM      30.10S
WALDEN         SUNNY     54  27  35 CALM      30.17F
$$

COZ006>008-011-211900-
...WEST CENTRAL VALLEYS...

CITY           SKY/WX    TMP DP  RH WIND       PRES   REMARKS
GRAND JUNCTION CLOUDY    63  41  44 S9        29.99F
MONTROSE       CLOUDY    62  41  46 NW9       30.06F
EAGLE          PTSUNNY   63  36  36 CALM      30.11F
RIFLE          CLOUDY    61  40  45 VRB3      30.05F
DELTA          CLOUDY    68  39  35 NE5       30.02F
NUCLA          CLOUDY    63  37  39 NW6       30.07F
$$

COZ017>023-064>068-211900-
...SOUTHWEST COLORADO...

CITY           SKY/WX    TMP DP  RH WIND       PRES   REMARKS
DURANGO        PTSUNNY   62  42  47 E10       30.12F
CORTEZ         SUNNY     66  41  40 SE13G21   30.06F
PAGOSA SPRINGS PTSUNNY   59  34  38 E3        30.18F
TELLURIDE      CLOUDY    55  27  33 SE6       30.20F
WOLF CREEK PAS NOT AVBL
$$

COZ009-010-012-014-032>034-037-058>063-211900-
...CENTRAL COLORADO...

CITY           SKY/WX    TMP DP  RH WIND       PRES   REMARKS
ASPEN          PTSUNNY   61  31  32 VRB6      30.13F
BUENA VISTA    PTSUNNY   47  38  71 CALM      30.25S
COPPER MTN     PTSUNNY   45  18  33 S12       30.36R
BERTHOUD PASS  CLOUDY    32  25  74 E13G26    30.39F WCI  22
COTTONWOOD PAS CLOUDY    43  36  75 CALM      30.31S
GUNNISON       CLOUDY    54  36  50 CALM      30.20S
KREMMLING      PTSUNNY   59  28  31 CALM      30.14F
LEADVILLE      PTSUNNY   49  31  49 S17       30.24S
SALIDA         PTSUNNY   52  40  63 CALM      30.29F
SUNLIGHT       CLOUDY    45  30  57 CALM      30.32F
WILKERSON PASS PTSUNNY   39  34  81 SW3       30.38S
$$

COZ069>075-211900-
...SAN LUIS VALLEY/SANGRE DE CRISTO MOUNTAINS...

CITY           SKY/WX    TMP DP  RH WIND       PRES   REMARKS
ALAMOSA        MOSUNNY   59  38  45 SW7       30.18F
LA VETA PASS   FOG      N/A N/A N/A MISG      30.32S VSB<1/4
SAGUACHE       CLOUDY    52  39  62 SE9       30.23F
$$

COZ035-036-038>040-211900-
...NORTHERN COLORADO FRONT RANGE...

CITY           SKY/WX    TMP DP  RH WIND       PRES   REMARKS
DENVER INTL AP CLOUDY    52  41  66 NW3       30.18F
DMNS CITY PARK   N/A     51  40  66 N7        30.18F
AURORA         CLOUDY    51  41  69 NW6       30.19S
FRONT RANGE AP PTSUNNY   55  45  67 N7        30.19F
ERIE MUNI ARPT CLOUDY    48  40  72 CALM      30.20S
BOULDER MUN AP CLOUDY    46  41  81 CALM      30.20S
CENTENNIAL     CLOUDY    51  41  68 CALM      30.18F
BROOMFIELD     NOT AVBL
FORT COLLINS   CLOUDY    48  39  71 CALM      30.21F
LONGMONT       CLOUDY    51  41  69 CALM      30.22S
$$

COZ041-046-047-076>085-087-088-211900-
...PIKES PEAK/PALMER DIVIDE AND SOUTHERN FOOTHILLS...

CITY           SKY/WX    TMP DP  RH WIND       PRES   REMARKS
COLO. SPRINGS  DRZL/FOG  41  41 100 SE10      30.25F VSB 3/4
A. F. ACADEMY  CLOUDY    41  41 100 S13       30.23S FOG
ELLICOTT       NOT AVBL
FALCON         CLOUDY    39  38  97 S13       30.26S FOG
FORT CARSON    CLOUDY    41 N/A N/A SE10      30.24S FOG
LIMON          CLOUDY    45  40  82 S17G25    30.24F
MONUMENT HILL  CLOUDY    43  37  81 MISG      30.21S
TRINIDAD       CLOUDY    53  43  68 NE6       30.22F
$$

COZ042>045-048>051-090-091-211900-
...NORTHEAST COLORADO...

CITY           SKY/WX    TMP DP  RH WIND       PRES   REMARKS
GREELEY ARPT   CLOUDY    52  41  66 CALM      30.20S
AKRON          CLOUDY    51  43  74 SE15      30.23F
BURLINGTON     CLOUDY    50  41  71 S12       30.27F
WRAY           CLOUDY    57  42  55 SE12G17   30.26F
STERLING       CLOUDY    52  43  71 SE8       30.22F
HOLYOKE        NOT AVBL
FORT MORGAN    CLOUDY    51  41  68 S12       30.22F
$$

COZ086-089-092>099-211900-
...SOUTHEAST COLORADO...

CITY           SKY/WX    TMP DP  RH WIND       PRES   REMARKS
PUEBLO         CLOUDY    45  42  89 E5        30.24F
LA JUNTA       CLOUDY    52  44  74 E14       30.23F
LAMAR          CLOUDY    54  43  66 SE10      30.24F
SPRINGFIELD      N/A     50  42  74 S12G17    30.27S
$$


USA.gov is the U.S. government's official web portal to all federal, state and local government web resources and services.